Regional Weather Roundup
Issued by NWS

Home | Current Version | Previous Version | Text Only | Print | Product List | Glossary On
Versions: 1 2 3 4 5 6 7 8 9 10 11 12 13 14 15 16 17 18 19 20 21 22 23 24 25 26 27 28 29 30 31 32 33 34 35 36 37 38 39 40 41 42 43 44 45 46 47 48 49 50
000
ASUS45 KTFX 181604
RWRMT
MONTANA HOURLY WEATHER ROUNDUP
NATIONAL WEATHER SERVICE GREAT FALLS MT
1004 AM MDT FRI APR 18 2014

NOTE: "FAIR" INDICATES FEW OR NO CLOUDS BELOW 12000 FEET WITH NO
SIGNIFICANT WEATHER AND/OR OBSTRUCTIONS TO VISIBILITY.

* THESE STATIONS ARE NOT UNDER NWS QUALITY CONTROL. THEY DO NOT
   REPORT WEATHER SUCH AS PRECIPITATION OR FOG.

MTZ001>007-043-181700-
WEST OF THE DIVIDE
CITY           SKY/WX    TMP DP  RH WIND       PRES   REMARKS
KALISPELL      PTSUNNY   45  30  56 W12G22    29.77S
MISSOULA       CLOUDY    45  30  56 NW10      29.87S
BUTTE          CLOUDY    41  36  82 CALM      29.78F
MULLAN PASS    LGT SNOW  25  23  92 SW9G22    29.78S VSB 1/2  WCI  16
* ESSEX        N/A       39  28  65 SE6G12     N/A   WCI  35
* LINCOLN      N/A       39  34  82 S5G13      N/A   WCI  35
* LOOKOUT PASS N/A       32  26  79 E4G9       N/A
* POLSON       N/A       43  28  56 S5G13      N/A
* SEELEY LAKE  N/A       40  36  86 SE1        N/A
* THOMP F APT  PTCLDY    37  37 100 SW10G30    N/A   WCI  30
* YAAK HILL    N/A       40  37  89 N/A        N/A
$$

MTZ008-052>055-181700-
SOUTHWEST MONTANA
CITY           SKY/WX    TMP DP  RH WIND       PRES   REMARKS
BOZEMAN        LGT RAIN  43  39  86 SE15      29.78S
DILLON         CLOUDY    46  36  68 S12       29.78S
W YELLOWSTONE  N/A       39  38  96 SW7G17     N/A   WCI  34
* THREE FORKS  CLOUDY    45  45 100 N/A        N/A
* BOULDER HILL N/A       41  27  58 S9G15      N/A
* MONIDA PASS  N/A       38  38 100 S4         N/A
* RAYNOLDS PAS N/A       36  21  54 S11G19     N/A   WCI  28
* WHITEHALL    N/A       47  38  71 NW6G12     N/A
* WISE RIVER   N/A       42  32  68 NW4G10     N/A
$$

MTZ009>010-012-014-046-048-049-054-181700-
EAST SLOPES AND CENTRAL MONTANA
CITY           SKY/WX    TMP DP  RH WIND       PRES   REMARKS
CUT BANK       PTCLDY    50  25  38 W33G38    29.65R
GREAT FALLS    CLOUDY    48  36  63 SW13      29.68R
HELENA         CLOUDY    48  34  59 W16       29.74S
MALMSTROM AFB  CLOUDY    48  36  63 S20       29.65R
* CONRAD       CLOUDY    50  36  59 SW9        N/A
* DEARBORN     N/A       49  31  50 S15G21     N/A
* EAST GLACIER N/A       37  27  67 W35G47     N/A   WCI  24
* MONARCH      N/A       41  29  62 SW9G14     N/A
* PENDROY      N/A       46  25  44 W11G19     N/A
* ROGERS PASS  N/A       36  29  76 SE12G19    N/A   WCI  28
* SAINT MARY   N/A       36  34  92 S8G23      N/A   WCI  30
* SWEET GRASS  N/A       47  30  52 SW31G39    N/A
$$

MTZ011-013-016-021-035-040-045-047-050-051-181700-
NORTH CENTRAL MONTANA
CITY           SKY/WX    TMP DP  RH WIND       PRES   REMARKS
HAVRE          CLOUDY    52  45  77 SW13      29.62R
LEWISTOWN      CLOUDY    48  36  63 W8        29.69R
* CHESTER      N/A       49  38  66 W8G13      N/A
* DENTON       N/A       52  35  52 W14G20     N/A
* GEYSER       N/A       48  33  56 SW17       N/A
* JUDITH GAP   N/A       46  35  66 NW6        N/A
* LOMA         N/A       52  42  69 SW10G15    N/A
$$

MTZ017>020-022>027-061-062-181700-
NORTHEAST MONTANA
CITY           SKY/WX    TMP DP  RH WIND       PRES   REMARKS
GLASGOW        CLOUDY    43  30  60 E21       29.64S
GLENDIVE       CLOUDY    46  30  54 SE10      29.76F
JORDAN         CLOUDY    54  37  53 SW5       29.63R
SIDNEY         PTSUNNY   45  28  51 SE14      29.81F
WOLF POINT     CLOUDY    45  28  51 E20G25    29.69F
* BEAVER HILL  N/A       45  31  58 SE27G33    N/A
* CIRCLE       N/A       47  35  63 E9G15      N/A
* LINDSAY DVD  N/A       42  31  65 E21        N/A
* NAVAJO       N/A       36  28  73 SE19G26    N/A   WCI  25
* SACO         N/A       43  32  65 E17G22     N/A
$$

MTZ028>042-056>058-181700-
SOUTHCENTRAL AND SOUTHEAST MONTANA
CITY           SKY/WX    TMP DP  RH WIND       PRES   REMARKS
BAKER          PTCLDY    48  34  59 SE24G30   29.74F
BILLINGS       CLOUDY    59  37  44 NW17      29.66F
LIVINGSTON     RAIN      43  37  79 SW10      29.78R VSB 2 1/2
MILES CITY     PTSUNNY   54  36  51 SE20G26   29.64F
* LAUREL APT   PTSUNNY   55  34  45 W13G18     N/A
* ROUNDUP APT  CLOUDY    46  36  68 N/A        N/A
* HYSHAM       N/A       49  31  50 W12        N/A
* LAME DEER    N/A       58  35  42 S17G24     N/A
* REED POINT   N/A       50  36  59 W12G18     N/A
* ROSCOE HILL  N/A       53  30  41 N11        N/A
$$

REGIONAL REPORTS...DAKOTAS
CITY           SKY/WX    TMP DP  RH WIND       PRES   REMARKS
WILLISTON      CLOUDY    43  27  53 SE20G26   29.83F
DICKINSON      PTCLDY    46  28  50 SE23      29.80F
CROSBY         PTSUNNY   37  27  67 SE26G32   29.87F WCI  25
TIOGA          CLOUDY    41  25  53 SE22G35   29.90F
WATFORD CITY   SUNNY     43  27  53 SE21G29   29.82F
BISMARCK       PTCLDY    46  27  48 SE24G30   29.96F
GRAND FORKS    CLOUDY    43  21  42 SE15      30.25F
FARGO          CLOUDY    41  27  58 SE14      30.24F
RAPID CITY     PTSUNNY   52  39  61 SE8       29.78F
$$

REGIONAL REPORTS...WYOMING/IDAHO/WASHINGTON
CITY           SKY/WX    TMP DP  RH WIND       PRES   REMARKS
GILLETTE       CLOUDY    57  36  46 S22G29    29.72F
SHERIDAN       PTSUNNY   54  37  53 NE7       29.68F
CODY           PTCLDY    57  37  47 S3        29.73F
YELLOWSTONE LA CLOUDY    34  34 100 CALM      29.88F
SALMON         CLOUDY    46  37  71 CALM      29.82F
MULLAN PASS    LGT SNOW  25  23  92 SW9G22    29.78S VSB 1/2  WCI  16
SPOKANE        PTCLDY    41  32  70 SW23      29.88R

$$




USA.gov is the U.S. government's official web portal to all federal, state and local government web resources and services.